Regional Weather Roundup
Issued by NWS

Home | Current Version | Previous Version | Graphics & Text | Print | Product List | Glossary On
Versions: 1 2 3 4 5 6 7 8 9 10 11 12 13 14 15 16 17 18 19 20 21 22 23 24 25 26 27 28 29 30 31 32 33 34 35 36 37 38 39 40 41 42 43 44 45 46 47 48 49 50
000
ASUS43 KDMX 242001
RWRIA

WEATHER ROUNDUP FOR IOWA
NATIONAL WEATHER SERVICE DES MOINES IA
300 PM CDT WED MAY 24 2017

NOTE: "FAIR" INDICATES FEW OR NO CLOUDS BELOW 12,000 FEET WITH NO
SIGNIFICANT WEATHER AND/OR OBSTRUCTIONS TO VISIBILITY.

* - THESE STATIONS ARE NOT NWS STATIONS...THUS NOT UNDER NWS
QUALITY CONTROL.  THEY ALSO DO NOT REPORT WEATHER SUCH
AS PRECIPITATION OR FOG.

IAZ001>003-012>014-020>022-031>034-043>046-242100-
   NORTHWEST IOWA

CITY           SKY/WX    TMP DP  RH WIND       PRES   REMARKS
CARROLL *      PTSUNNY   63  48  59 NE10G17   29.70S
CHEROKEE *     MOSUNNY   60  45  56 E6        29.71F
DENISON *      PTSUNNY   63  45  51 NE10      29.71F
LE MARS *      CLOUDY    63  45  51 NE7       29.72F
ORANGE CITY *  CLOUDY    61  45  55 E6        29.72S
SHELDON *      CLOUDY    61  43  51 E6G15     29.70F
SIOUX CITY     PTSUNNY   65  47  52 VRB5      29.71F
SPENCER        PTSUNNY   63  44  50 NE9       29.72F
STORM LAKE *     N/A     61  43  51 NE9G15    29.71F
$$

IAZ055>058-069>071-079>083-090>094-242100-
   SOUTHWEST IOWA

CITY           SKY/WX    TMP DP  RH WIND       PRES   REMARKS
ATLANTIC *     PTSUNNY   63  50  63 NE10G16   29.69F
AUDUBON *      MOSUNNY   63  48  59 N7        29.71S
CLARINDA *     MOSUNNY   66  46  48 N7G14     29.71S
COUNCIL BLFS *   N/A     63  45  51 VRB6G14   29.70F
CRESTON *      PTSUNNY   59  48  67 N14       29.70F
HARLAN  *      PTSUNNY   63  46  55 NE9       29.73F
LAMONI         PTSUNNY   60  51  72 N12       29.68S
RED OAK *      PTSUNNY   64  48  55 N12G17    29.69F
SHENANDOAH *   PTSUNNY   64  45  48 N7G15     29.70F
$$

IAZ047>049-059>061-072>074-084-242100-
   CENTRAL IOWA

CITY           SKY/WX    TMP DP  RH WIND       PRES   REMARKS
AMES           PTSUNNY   61  51  70 NE9       29.68F
ANKENY *       PTSUNNY   61  50  67 N8        29.69S
BOONE *        MOSUNNY   61  52  72 N14       29.68F
CHARITON *     CLOUDY    59  52  77 N13       29.67S
DES MOINES     CLOUDY    62  48  60 N10       29.68S
GRINNELL*      PTSUNNY   58  50  74 N12       29.68S
KNOXVILLE *    CLOUDY    59  48  67 N9G17     29.66S
MARSHALLTOWN   CLOUDY    60  50  69 N14       29.67S
NEWTON *       CLOUDY    59  50  72 N13       29.66S
PELLA *        PTSUNNY   59  49  69 N9        29.68R
PERRY *        PTSUNNY   63  50  63 N8        29.69F
$$

IAZ004>006-015-016-023>025-035-036-242100-
   NORTH CENTRAL IOWA

CITY           SKY/WX    TMP DP  RH WIND       PRES   REMARKS
ALGONA *       MOSUNNY   59  48  67 NE12      29.72S
CLARION *      PTSUNNY   59  50  72 N9        29.70F
ESTHERVILLE    CLOUDY    59  47  64 N9        29.71F
FORT DODGE *   PTSUNNY   59  48  67 NE6       29.71F
MASON CITY     MOSUNNY   60  49  66 N10       29.71F
FOREST CITY *  PTSUNNY   64  41  42 NE7       29.71S
WEBSTER CITY * PTSUNNY   63  48  59 N13       29.68S
IOWA FALLS *   PTSUNNY   61  50  65 N10G17    29.69F
$$

IAZ007>011-017>019-026>030-037>042-050>054-066-242100-
   NORTHEAST IOWA

CITY           SKY/WX    TMP DP  RH WIND       PRES   REMARKS
CEDAR RAPIDS   CLOUDY    58  51  78 N12       29.64R
CHARLES CITY * PTSUNNY   61  50  67 N13       29.68S
CLINTON *      LGT RAIN  56  53  90 NE13      29.63S
DECORAH *        N/A     57  50  77 VRB6G14   29.67S
DUBUQUE        CLOUDY    58  50  75 NE10      29.63S
MONTICELLO *   CLOUDY    59  50  72 N9        29.63F
OELWEIN *      CLOUDY    57  50  77 NE16      29.67S
WATERLOO       CLOUDY    59  49  69 NE13      29.66S
$$

IAZ064-065-067-068-078-242100-
   EAST CENTRAL IOWA

CITY           SKY/WX    TMP DP  RH WIND       PRES   REMARKS
DAVENPORT      LGT RAIN  57  52  83 NE14      29.62S
IOWA CITY      CLOUDY    62  50  64 N7        29.64F
MT. PLEASANT * CLOUDY    59  53  81 N8        29.62F
MUSCATINE *    PTSUNNY   63  50  63 N9        29.62F
QUAD CITIES    CLOUDY    60  52  74 NE9       29.60S
$$

IAZ062-063-075>077-085>089-095>099-242100-
   SOUTHEAST IOWA

CITY           SKY/WX    TMP DP  RH WIND       PRES   REMARKS
BURLINGTON     CLOUDY    61  54  77 N9        29.60R
FAIRFIELD *    CLOUDY    61  50  67 NE14      29.63R
FORT MADISON * CLOUDY    61  55  82 N8        29.62R
KEOKUK *       PTSUNNY   61  52  72 N17G24    29.60R
OSKALOOSA *    CLOUDY    61  49  63 N17       29.65S
OTTUMWA        CLOUDY    61  50  67 N20G25    29.64R
WASHINGTON *   PTSUNNY   63  50  63 NE16      29.64R
$$

ABBREVIATIONS USED IN REMARKS
   TC - TEMPERATURES IN CELSIUS
  WCI - WIND CHILL INDEX
   HX - HEAT INDEX
  VSB - VISIBILITY
$$





USA.gov is the U.S. government's official web portal to all federal, state and local government web resources and services.